sat.trackr.live / text

‹ back to catalog

STARLINK-2055

NORAD 47358 · 2021-005K

PAYLOAD ACTIVE UNKNOWN

§ Identity

Operator
Country
US
Launch date
2021-01-20
Launch site
AFETR
Launch vehicle
Mass (kg)
RCS (m²)

Purposes: comms

External: N2YO · Heavens-Above · Gunter

§ Orbital elements

Epoch: 2026-09-20T03:34:26.288832Z

Period
93.66 min
Inclination
53.1552°
Eccentricity
0.0003504
Mean motion
15.37521576 rev/d
Perigee alt
451.0 km
Apogee alt
455.8 km
Semi-major
6,831.6 km
B*
9.8048e-4
RAAN
210.6975°
Arg perigee
70.6699°
Mean anomaly
289.4684°
Rev number
31,319

§ Raw data

STARLINK-20551 47358U 21005K   26263.14891538  .00036410  00000+0  98048-3 0  99982 47358  53.1552 210.6975 0003504  70.6699 289.4684 15.37521576313199

JSON: /api/v1/satellites/47358 · /tle

For live sub-satellite position, see the globe view (requires WebGL).

§ Visibility from observer

Set your observer location to see the next 7 days of passes ≥ 10°. The values pass through the URL so the page stays shareable.

No JS? Fill the form by hand. The geolocation button needs JavaScript.